Meteo pe oră la Dabakala

Astăzi, 11 Aprilie, Duminică

Timp Temperatura Precipitaţii Vânt Presiune Umiditate
00:00 +27°C° 0 mm 2 m/s 731 mmHg 71%
01:00 +26°C° 0 mm 2 m/s 730 mmHg 74%
02:00 +26°C° 0 mm 2 m/s 730 mmHg 77%
03:00 +26°C° 0 mm 2 m/s 730 mmHg 79%
04:00 +25°C° 0 mm 2 m/s 730 mmHg 82%
05:00 +25°C° 0 mm 2 m/s 730 mmHg 85%
06:00 +25°C° 0 mm 1 m/s 731 mmHg 88%
07:00 +27°C° 0 mm 2 m/s 731 mmHg 79%
08:00 +29°C° 0 mm 3 m/s 732 mmHg 69%
09:00 +30°C° 0 mm 3 m/s 733 mmHg 60%
10:00 +33°C° 0 mm 3 m/s 732 mmHg 53%
11:00 +36°C° 0 mm 3 m/s 732 mmHg 45%
12:00 +38°C° 0 mm 3 m/s 732 mmHg 38%
13:00 +39°C° 0 mm 3 m/s 731 mmHg 35%
14:00 +40°C° 0 mm 3 m/s 730 mmHg 32%
15:00 +41°C° 0 mm 2 m/s 730 mmHg 29%
16:00 +39°C° 0 mm 3 m/s 730 mmHg 31%
17:00 +38°C° 0 mm 3 m/s 729 mmHg 34%
18:00 +37°C° 0 mm 3 m/s 729 mmHg 36%
19:00 +35°C° 0 mm 3 m/s 730 mmHg 42%
20:00 +34°C° 0 mm 2 m/s 731 mmHg 48%
21:00 +31°C° 0 mm 2 m/s 731 mmHg 53%
22:00 +30°C° 0.3 mm 2 m/s 731 mmHg 63%
23:00 +28°C° 0.3 mm 3 m/s 732 mmHg 72%

Mâine, 12 Aprilie, Luni

Timp Temperatura Precipitaţii Vânt Presiune Umiditate
00:00 +27°C° 0.3 mm 4 m/s 732 mmHg 81%
01:00 +27°C° 0 mm 3 m/s 732 mmHg 83%
02:00 +26°C° 0 mm 3 m/s 731 mmHg 84%
03:00 +26°C° 0 mm 2 m/s 731 mmHg 85%
04:00 +26°C° 0 mm 2 m/s 732 mmHg 87%
05:00 +26°C° 0 mm 2 m/s 732 mmHg 88%
06:00 +25°C° 0 mm 2 m/s 733 mmHg 90%
07:00 +27°C° 0 mm 2 m/s 733 mmHg 82%
08:00 +29°C° 0 mm 3 m/s 733 mmHg 73%
09:00 +30°C° 0 mm 3 m/s 734 mmHg 65%
10:00 +34°C° 0 mm 3 m/s 733 mmHg 56%
11:00 +36°C° 0 mm 3 m/s 733 mmHg 48%
12:00 +38°C° 0 mm 2 m/s 732 mmHg 40%
13:00 +39°C° 0 mm 2 m/s 732 mmHg 36%
14:00 +40°C° 0 mm 2 m/s 731 mmHg 32%
15:00 +42°C° 0 mm 1 m/s 730 mmHg 28%
16:00 +40°C° 0 mm 2 m/s 730 mmHg 32%
17:00 +38°C° 0 mm 3 m/s 730 mmHg 37%
18:00 +36°C° 0 mm 3 m/s 730 mmHg 41%
19:00 +34°C° 0.2 mm 3 m/s 730 mmHg 49%
20:00 +33°C° 0.2 mm 3 m/s 730 mmHg 57%
21:00 +30°C° 0.2 mm 2 m/s 731 mmHg 64%
22:00 +29°C° 0 mm 3 m/s 731 mmHg 67%
23:00 +28°C° 0 mm 3 m/s 732 mmHg 70%

Poimâine, 13 Aprilie, Marţi

Timp Temperatura Precipitaţii Vânt Presiune Umiditate
00:00 +28°C° 0 mm 4 m/s 733 mmHg 72%
01:00 +27°C° 0 mm 3 m/s 732 mmHg 76%
02:00 +27°C° 0 mm 3 m/s 732 mmHg 80%
03:00 +26°C° 0 mm 2 m/s 732 mmHg 84%
04:00 +26°C° 0 mm 2 m/s 732 mmHg 84%
05:00 +26°C° 0 mm 2 m/s 733 mmHg 84%
06:00 +26°C° 0 mm 2 m/s 733 mmHg 84%
07:00 +27°C° 0 mm 2 m/s 733 mmHg 76%
08:00 +29°C° 0 mm 3 m/s 734 mmHg 67%
09:00 +32°C° 0 mm 4 m/s 735 mmHg 59%
10:00 +34°C° 0 mm 4 m/s 734 mmHg 52%
11:00 +36°C° 0 mm 3 m/s 734 mmHg 46%
12:00 +38°C° 0 mm 3 m/s 734 mmHg 39%
13:00 +39°C° 0 mm 3 m/s 733 mmHg 36%
14:00 +40°C° 0 mm 3 m/s 732 mmHg 33%
15:00 +41°C° 0 mm 2 m/s 731 mmHg 29%
16:00 +38°C° 0.4 mm 3 m/s 731 mmHg 40%
17:00 +35°C° 0.4 mm 3 m/s 731 mmHg 50%
18:00 +31°C° 0.4 mm 3 m/s 731 mmHg 61%
19:00 +31°C° 0.1 mm 3 m/s 731 mmHg 61%
20:00 +31°C° 0.1 mm 3 m/s 732 mmHg 62%
21:00 +30°C° 0.1 mm 3 m/s 732 mmHg 62%
22:00 +30°C° 0 mm 3 m/s 732 mmHg 64%
23:00 +29°C° 0 mm 3 m/s 733 mmHg 67%

14 Aprilie, Miercuri

Timp Temperatura Precipitaţii Vânt Presiune Umiditate
00:00 +29°C° 0 mm 2 m/s 733 mmHg 69%
01:00 +28°C° 0 mm 2 m/s 733 mmHg 72%
02:00 +28°C° 0 mm 2 m/s 732 mmHg 75%
03:00 +27°C° 0 mm 2 m/s 732 mmHg 78%
04:00 +27°C° 0.7 mm 2 m/s 732 mmHg 82%
05:00 +26°C° 0.7 mm 2 m/s 733 mmHg 85%
06:00 +25°C° 0.7 mm 1 m/s 733 mmHg 89%
07:00 +26°C° 2.8 mm 2 m/s 733 mmHg 87%
08:00 +26°C° 2.8 mm 2 m/s 733 mmHg 85%
09:00 +27°C° 2.8 mm 3 m/s 734 mmHg 83%
10:00 +28°C° 0 mm 3 m/s 734 mmHg 77%
11:00 +29°C° 0 mm 3 m/s 734 mmHg 70%
12:00 +30°C° 0 mm 3 m/s 734 mmHg 64%
13:00 +31°C° 0 mm 3 m/s 733 mmHg 59%
14:00 +32°C° 0 mm 2 m/s 732 mmHg 54%
15:00 +35°C° 0 mm 2 m/s 731 mmHg 49%
16:00 +34°C° 0.5 mm 2 m/s 731 mmHg 54%
17:00 +31°C° 0.5 mm 3 m/s 731 mmHg 60%
18:00 +30°C° 0.5 mm 3 m/s 730 mmHg 65%
19:00 +29°C° 0.7 mm 2 m/s 731 mmHg 68%
20:00 +27°C° 0.7 mm 2 m/s 732 mmHg 71%
21:00 +26°C° 0.7 mm 1 m/s 732 mmHg 73%
22:00 +26°C° 0.1 mm 1 m/s 732 mmHg 77%
23:00 +25°C° 0.1 mm 1 m/s 733 mmHg 81%

15 Aprilie, Joi

Timp Temperatura Precipitaţii Vânt Presiune Umiditate
00:00 +25°C° 0.1 mm 1 m/s 733 mmHg 84%
01:00 +25°C° 0 mm 2 m/s 732 mmHg 85%
02:00 +26°C° 0 mm 2 m/s 732 mmHg 86%
03:00 +26°C° 0 mm 2 m/s 732 mmHg 87%
04:00 +26°C° 0 mm 2 m/s 732 mmHg 87%
05:00 +26°C° 0 mm 2 m/s 732 mmHg 88%
06:00 +26°C° 0 mm 2 m/s 732 mmHg 88%
07:00 +27°C° 0 mm 2 m/s 733 mmHg 81%
08:00 +28°C° 0 mm 2 m/s 733 mmHg 73%
09:00 +30°C° 0 mm 2 m/s 734 mmHg 66%
10:00 +32°C° 0 mm 2 m/s 734 mmHg 58%
11:00 +35°C° 0 mm 2 m/s 733 mmHg 51%
12:00 +37°C° 0 mm 2 m/s 733 mmHg 43%
13:00 +38°C° 0 mm 2 m/s 732 mmHg 40%
14:00 +39°C° 0 mm 2 m/s 731 mmHg 37%
15:00 +39°C° 0 mm 2 m/s 730 mmHg 33%
16:00 +38°C° 0 mm 2 m/s 730 mmHg 38%
17:00 +36°C° 0 mm 2 m/s 730 mmHg 42%
18:00 +35°C° 0 mm 3 m/s 730 mmHg 47%
19:00 +34°C° 0 mm 2 m/s 730 mmHg 51%
20:00 +32°C° 0 mm 2 m/s 731 mmHg 55%
21:00 +30°C° 0 mm 2 m/s 731 mmHg 59%
22:00 +30°C° 0.1 mm 2 m/s 731 mmHg 61%
23:00 +29°C° 0.1 mm 2 m/s 732 mmHg 64%

16 Aprilie, Vineri

Timp Temperatura Precipitaţii Vânt Presiune Umiditate
00:00 +29°C° 0.1 mm 1 m/s 732 mmHg 67%
01:00 +28°C° 0 mm 1 m/s 731 mmHg 68%
02:00 +28°C° 0 mm 2 m/s 731 mmHg 70%
03:00 +28°C° 0 mm 2 m/s 731 mmHg 71%
04:00 +27°C° 0 mm 2 m/s 731 mmHg 74%
05:00 +27°C° 0 mm 1 m/s 731 mmHg 76%
06:00 +27°C° 0 mm 1 m/s 732 mmHg 78%
07:00 +28°C° 0 mm 2 m/s 732 mmHg 72%
08:00 +30°C° 0 mm 2 m/s 733 mmHg 66%
09:00 +31°C° 0 mm 3 m/s 733 mmHg 61%
10:00 +34°C° 0 mm 3 m/s 733 mmHg 54%
11:00 +36°C° 0 mm 2 m/s 732 mmHg 47%
12:00 +38°C° 0 mm 2 m/s 732 mmHg 41%
13:00 +39°C° 0 mm 2 m/s 731 mmHg 37%
14:00 +40°C° 0 mm 2 m/s 730 mmHg 33%
15:00 +41°C° 0 mm 1 m/s 730 mmHg 29%
16:00 +40°C° 0 mm 2 m/s 729 mmHg 33%
17:00 +38°C° 0 mm 2 m/s 729 mmHg 36%
18:00 +37°C° 0 mm 3 m/s 729 mmHg 40%
19:00 +34°C° 0.8 mm 2 m/s 730 mmHg 50%
20:00 +31°C° 0.8 mm 1 m/s 731 mmHg 60%
21:00 +29°C° 0.8 mm 1 m/s 732 mmHg 70%
22:00 +29°C° 0.1 mm 1 m/s 732 mmHg 72%
23:00 +28°C° 0.1 mm 1 m/s 732 mmHg 73%
Arată mai mult

Formular de consimțământ

Meteoprog și furnizorii noștri de servicii pot stoca și accesa date personale, precum cookies, identificatori de dispozitiv sau alte tehnologii similare pe dispozitivul dumneavoastră și procesa astfel de date pentru a personaliza conținutul și reclamele, dar și pentru a oferi caracteristici de social media și pentru a analiza traficul.

  • Stocarea și/sau accesarea informațiilor pe dispozitivul dumneavoastră

    Cookies, identificatori de dispozitiv sau alte informații pot fi stocate sau accesate pe dispozitiv în scopurile indicate mai sus.

  • Reclame și conținut personalizat, evaluarea reclamelor și a conținutului, informații despre audiențe și dezvoltarea produselor

    Reclamele și conținutul pot fi personalizate pe baza unui profil. Pot fi adăugate date suplimentare pentru a personaliza mai bine reclamele și conținutul. Performanța reclamelor și conținutului poate fi măsurată. Pot fi obținute informații despre utilizatorii care au văzut reclamele și conținutul. Aceste date pot fi utilizate pentru a dezvolta sau îmbunătăți experiența utilizatorilor, sistemele și software-ul.

Dând clic pe ‘Sunt de acord’, permiteți utilizarea cookie-urilor menționate, a identificatorilor de dispozitiv, balizelor web sau altor tehnologii similare. Setările pot fi modificate din browser-ul dispozitivului dumneavoastră.

În anumite scopuri, interesele legitime pot prima asupra consimțământului. Puteți citi mai multe informații în acest sens în Politica privind Confidențialitatea Datelor și Cookie.